Regional Weather Roundup
Issued by NWS

Home | Current Version | Previous Version | Graphics & Text | Print | Product List | Glossary On
Versions: 1 2 3 4 5 6 7 8 9 10 11 12 13 14 15 16 17 18 19 20 21 22 23 24 25 26 27 28 29 30 31 32 33 34 35 36 37 38 39 40 41 42 43 44 45 46 47 48 49 50
000
ASUS43 KFSD 212002
RWRSD

WEATHER ROUNDUP FOR SOUTH DAKOTA
NATIONAL WEATHER SERVICE SIOUX FALLS SD
300 PM CDT THU SEP 21 2017

NOTE: "FAIR" INDICATES FEW OR NO CLOUDS BELOW 12,000 FEET WITH NO
SIGNIFICANT WEATHER AND/OR OBSTRUCTIONS TO VISIBILITY.


SDZ001>005-009-010-012>017-212100-
NORTHWEST AND NORTH CENTRAL SOUTH DAKOTA

CITY           SKY/WX    TMP DP  RH WIND       PRES   REMARKS
BUFFALO          N/A     70  38  31 N13       29.66S
FAITH            N/A     81  44  27 S10       29.63S
MOBRIDGE       SUNNY     86  59  39 S14G23    29.59F
$$

SDZ012>016-024>037-041>051-057-063-072>074-212100-
SOUTHWEST AND SOUTH CENTRAL SOUTH DAKOTA

CITY           SKY/WX    TMP DP  RH WIND       PRES   REMARKS
RAPID CTY ARPT NOT AVBL
PIERRE         SUNNY     87  55  33 S17G29    29.59F
CUSTER         SUNNY     77  31  18 SW9G22    29.78F
ELLSWORTH AFB  SUNNY     75  39  27 N12       29.68S
PHILIP         SUNNY     89  46  22 NW7       29.59F
PINE RIDGE     SUNNY     89  44  20 SW5       29.65F
SPEARFISH      FAIR      66  39  37 NW8G16    29.75S
WINNER         FAIR      87  57  35 S22       29.63F
$$

SDZ004>011-016>023-039-040-212100-
NORTHEAST SOUTH DAKOTA

CITY           SKY/WX    TMP DP  RH WIND       PRES   REMARKS
ABERDEEN       SUNNY     84  66  54 S25G33    29.64F
WATERTOWN      PTSUNNY   79  69  71 S17G26    29.70F
BROOKINGS      PTSUNNY   82  71  69 S24G35    29.72F
SISSETON         N/A     79  60  52 S13G22    29.70F
$$

SDZ017-020-022-023-036>040-048>070-212100-
SOUTHEAST SOUTH DAKOTA

CITY           SKY/WX    TMP DP  RH WIND       PRES   REMARKS
SIOUX FALLS    PTSUNNY   84  73  69 S18G35    29.71F
HURON          SUNNY     81  67  62 S14G24    29.65F
MITCHELL       SUNNY     85  68  56 S18G25    29.66F
YANKTON        SUNNY     86  69  56 SE22      29.69F
$$

ABBREVIATIONS USED IN REMARKS
   TC - TEMPERATURE IN CELSIUS
  WCI - WIND CHILL INDEX
   HX - HEAT INDEX
  VSB - VISIBILITY





USA.gov is the U.S. government's official web portal to all federal, state and local government web resources and services.